Torna al catalogo

STARLINK-2088

AttivoComunicazioniVLEO
NORAD 47371·PAYLOAD·🇺🇸 United States

Lanciato Jan 20, 2021 da Cape Canaveral Space Force Station

Loading…

Prossimi Passaggi (prossime 24 ore)

TLE

AggiornatoSource: CelesTrak SupGP

Epoca: Sep 15, 2026, 01:01 UTC

1 47371C 21005Y   26258.04284722  .00017772  00000+0  57162-3 0  2587
2 47371  53.1588 265.1409 0001246  85.4726 325.3027 15.31686392    13

Traccia STARLINK-2088 in tempo reale con AllMySat

Download on the App Store